Content
SEND FEEDBACK

Daily
Averages
Monthly
Summary
Italy

CASALECCHIO DI RENO, ITALY


Home > Europe > Italy
Elevation: 161 feet     Latitude: 44 31N     Longitude: 011 18E

WEATHER
 
SELECT A DAY
Number of Records: 285,292;   Date Range: 7/1/96 - 7/28/14
 
SHARE

PRINT THIS DATA

[ ← Previous Day ]
WEATHER ALMANAC - FEBRUARY 13, 2013
[ Next Day → ]
[ °C ]   °F
Weather ElementAverageHighLow
Temperature33 °F35.6 °F (10:50 am)30.2 °F (7:20 pm)
Dewpoint30.7 °F33.8 °F (11:50 pm)28.4 °F (6:20 am)
Humidity91.3 %100 % (1:50 am)81 % (10:50 am)
Barometer29.88 in29.98 in (8:50 pm)29.80 in (12:50 am)
Wind Speed7.2 mph10.4 mph (5:50 am)
Weather ElementAverage
Visibility2.1 mi
Wind DirectionWNW (292.1 °)

Weather ElementTotal
Precipitation---
Heating Degree Days32.1 (Base 65)
Averaged from 47 records on February 13, 2013
WEATHER CONDITIONS BREAKOUT
WIND DIRECTION BREAKOUT
WEATHER BY HOUR - FEBRUARY 13, 2013
[ °C ]   °F
Local TimeTemperatureDewpointHumidityBarometerVisibilityWind DirectionWind SpeedGust SpeedPrecipitationEventsConditions
12:50 AM32.0 °F30.2 °F93 %29.80 in0.9 miWNW (300°)5.8 mphMostly Cloudy
1:20 AM32.0 °F30.2 °F93 %29.80 in0.9 miWSW (250°)5.8 mphMostly Cloudy
1:50 AM32.0 °F32.0 °F100 %29.80 in0.9 miWest (270°)6.9 mphMostly Cloudy
2:20 AM32.0 °F30.2 °F93 %29.83 in0.6 miWest (260°)5.8 mphMostly Cloudy
2:50 AM33.8 °F32.0 °F93 %29.80 in0.9 miWest (280°)6.9 mphMostly Cloudy
3:20 AM32.0 °F30.2 °F93 %29.80 in0.9 miWNW (290°)8.1 mphMostly Cloudy
3:50 AM33.8 °F30.2 °F87 %29.80 in0.9 miWest (280°)9.2 mphMostly Cloudy
4:20 AM32.0 °F30.2 °F93 %29.80 in1.6 miWest (280°)9.2 mphMostly Cloudy
4:50 AM32.0 °F30.2 °F93 %29.80 in1.6 miWest (280°)9.2 mphMostly Cloudy
5:20 AM32.0 °F30.2 °F93 %29.80 in1.6 miWest (270°)9.2 mphMostly Cloudy
5:50 AM32.0 °F30.2 °F93 %29.80 in2.2 miWNW (290°)10.4 mphMostly Cloudy
6:20 AM32.0 °F28.4 °F87 %29.83 in2.2 miWNW (290°)9.2 mphMostly Cloudy
6:50 AM32.0 °F28.4 °F87 %29.83 in2.2 miWNW (290°)9.2 mphMostly Cloudy
7:20 AM32.0 °F28.4 °F87 %29.83 in2.5 miWNW (290°)8.1 mphMostly Cloudy
7:50 AM32.0 °F30.2 °F93 %29.83 in3.1 miWest (270°)8.1 mphMostly Cloudy
8:20 AM32.0 °F30.2 °F93 %29.86 in3.1 miWest (270°)6.9 mphSnowLight Snow Grains
8:50 AM33.8 °F30.2 °F87 %29.86 in3.1 miWNW (300°)6.9 mphMostly Cloudy
9:20 AM32.0 °F30.2 °F93 %29.86 in3.7 miWNW (290°)9.2 mphMostly Cloudy
9:50 AM33.8 °F30.2 °F87 %29.86 in3.7 miNW (310°)6.9 mphMostly Cloudy
10:20 AM33.8 °F30.2 °F87 %29.86 in3.7 miWNW (300°)10.4 mphPartly Cloudy
10:50 AM35.6 °F30.2 °F81 %29.89 in4.3 miWNW (300°)8.1 mphScattered Clouds
11:20 AM33.8 °F30.2 °F87 %29.89 in4.3 miNW (320°)5.8 mphPartly Cloudy
11:50 AM33.8 °F30.2 °F87 %29.89 in3.7 miNNW (340°)6.9 mphPartly Cloudy
12:20 PM33.8 °F30.2 °F87 %29.89 in3.7 miNW (310°)9.2 mphPartly Cloudy
12:50 PM33.8 °F30.2 °F87 %29.89 in3.7 miNW (310°)9.2 mphPartly Cloudy
1:20 PM33.8 °F30.2 °F87 %29.89 in3.1 miNNW (330°)5.8 mphPartly Cloudy
1:50 PM33.8 °F30.2 °F87 %29.89 in3.1 miNW (320°)6.9 mphScattered Clouds
2:20 PM33.8 °F32.0 °F93 %29.89 in2.5 miNW (320°)5.8 mphMostly Cloudy
2:50 PM33.8 °F30.2 °F87 %29.89 in2.2 miWNW (300°)9.2 mphMostly Cloudy
3:20 PM33.8 °F32.0 °F93 %29.89 in2.2 miWNW (290°)9.2 mphPartly Cloudy
3:50 PM35.6 °F32.0 °F87 %29.89 in2.2 miWNW (300°)6.9 mphPartly Cloudy
4:20 PM35.6 °F32.0 °F87 %29.89 in2.2 miWNW (300°)8.1 mphPartly Cloudy
4:50 PM33.8 °F32.0 °F93 %29.89 in2.2 miWNW (290°)8.1 mphPartly Cloudy
5:20 PM35.6 °F32.0 °F87 %29.89 in2.2 miNW (310°)4.6 mphPartly Cloudy
5:50 PM33.8 °F32.0 °F93 %29.89 in2.2 miNW (320°)4.6 mphPartly Cloudy
6:20 PM33.8 °F30.2 °F87 %29.92 in1.4 miWNW (300°)5.8 mphPartly Cloudy
6:50 PM32.0 °F30.2 °F93 %29.92 in1.2 miNW (320°)5.8 mphScattered Clouds
7:20 PM30.2 °F30.2 °F100 %29.92 in0.5 miNW (310°)5.8 mphFogLight Freezing Fog
7:50 PM30.2 °F30.2 °F100 %29.95 in0.5 miNW (310°)4.6 mphFogLight Freezing Fog
8:20 PM32.0 °F30.2 °F93 %29.95 in0.5 miWNW (290°)5.8 mphFog-SnowLight Snow Grains
8:50 PM32.0 °F30.2 °F93 %29.98 in0.5 miWNW (300°)5.8 mphFog-SnowLight Snow Grains
9:20 PM32.0 °F32.0 °F100 %29.98 in0.7 miWest (270°)6.9 mphLight Freezing Drizzle
9:50 PM32.0 °F32.0 °F100 %29.98 in0.7 miWest (260°)3.5 mphLight Drizzle
10:20 PM32.0 °F32.0 °F100 %29.98 in1.6 miWest (270°)5.8 mphLight Drizzle
10:50 PM33.8 °F32.0 °F93 %29.98 in1.9 miWest (260°)4.6 mphMostly Cloudy
11:20 PM33.8 °F32.0 °F93 %29.98 in3.1 miWest (270°)5.8 mphMostly Cloudy
11:50 PM35.6 °F33.8 °F93 %29.98 in3.1 miWSW (250°)6.9 mphMostly Cloudy
Hourly data recorded from LIPE, located miles away from Casalecchio di Reno, Italy







STORIES FROM OUR PARTNERS